Location: Mountain View
(37.3861°N, 122.0839°W)
Time: 03:57:38
(UTC-08:00)

Tiangong 2 - Visible Passes

Search period start: 15 December 2017 00:00
Search period end: 25 December 2017 00:00
Orbit: 386 x 390 km, 42.8° (Epoch: 14 December)

Date Brightness Start Highest point End Pass type
(mag) Time Alt. Az. Time Alt. Az. Time Alt. Az.
19 Dec 3.1 18:23:04 10° S 18:24:58 17° SSE 18:24:58 17° SSE visible
20 Dec 3.2 19:00:13 10° SW 19:01:46 26° SW 19:01:46 26° SW visible
21 Dec 2.1 18:02:04 10° SW 18:04:58 33° SSE 18:06:12 24° ESE visible
22 Dec 1.4 18:40:01 10° WSW 18:42:51 64° WNW 18:42:51 64° WNW visible
23 Dec 1.2 17:41:34 10° SW 17:44:43 65° SSE 17:47:10 15° ENE visible
23 Dec 4.1 19:18:43 10° W 19:19:27 15° WNW 19:19:27 15° WNW visible
24 Dec 1.7 18:20:00 10° W 18:23:04 46° NNW 18:23:44 38° NNE visible
